User: anonymous   Login
Location: Unspecified
(0.0000°N, 0.0000°E)
Time: 19:55:31
(UTC+00:00)
Language:

LEMUR-2 NATE - Orbit

View from above orbital plane
View from above orbital plane
View from above satellite
View from above satellite

Ground track
Ground track

The orbit data is extracted from the following two-line orbital elements,

1 41597U 16019D   17065.40631615  .17439871  12840-4  24211-3 0  9990
2 41597  51.5883 152.6675 0013907 342.2461  19.4783 16.47903378 40613
Epoch (UTC): 06 March 2017 09:45:05
Eccentricity: 0.0013907
inclination: 51.5883°
perigee height: 136 km
apogee height: 154 km
right ascension of ascending node: 152.6675°
argument of perigee: 342.2461°
revolutions per day: 16.47903378
mean anomaly at epoch: 19.4783°
orbit number at epoch: 4061

The dashed part of the orbit path shows where the satellite is in the earth's shadow,  

DLR